User: anonymous   Login
Location: Newark
(34.1333°N, 7.9667°W)
Time: 13:25:44
(UTC+00:00)
Language:

FENGYUN 1C DEB - Orbit

View from above orbital plane
View from above orbital plane
View from above satellite
View from above satellite

Ground track
Ground track

The orbit data is extracted from the following two-line orbital elements,

1 31348U 99025BRC 24053.25127181  .00002829  00000-0  11990-2 0  9998
2 31348  99.0849 328.8211 0038052 176.0258 335.7173 14.25865370868228
Epoch (UTC): 22 February 2024 06:01:49
Eccentricity: 0.0038052
inclination: 99.0849°
perigee height: 778 km
apogee height: 833 km
right ascension of ascending node: 328.8211°
argument of perigee: 176.0258°
revolutions per day: 14.25865370
mean anomaly at epoch: 335.7173°
orbit number at epoch: 86822

The dashed part of the orbit path shows where the satellite is in the earth's shadow,  

DLR